星链-2706 (STARLINK-2706 )

导读

STARLINK-2706是美国太空探索技术公司发射的星链卫星,于北京时间2021年5月9日发射入轨,属于星链互联网星座的组成部分,旨在为全球提供高速低延迟的宽带互联网服务。星链计划通过部署近地轨道卫星群,覆盖偏远地区,弥补地面网络覆盖不足,推动全球互联互通。

Basic Information
目录编号:
48481
目录名称:
STARLINK-2706
国际标识:
2021-040BF
轨道中心:
EARTH
卫星名称:
星链-2706
卫星全名:
星链-2706 (STARLINK-2706 )
卫星状态:
在轨 (已飞行1945 天)
发射日期:
2021-05-09 UTC
国别 :
美国 (US)
星等 :
--
Orbit Information
数据来源 国际轨道数据 AOE轨道数据
星历时间 2026-09-05T06:37:00+0800
12小时前
查看轨道信息
2026-09-03T12:00:00+0800
2天前
查看轨道信息
半长轴 6848.865km 6848.895km
偏心率 0.000119 0.000136
轨道倾角 53.159° 53.160°
近地点辐角 94.407° 85.456°
升交点赤经 79.312° 87.578°
平近点角 265.707° 197.794°
近地点 469.912km 469.826km
远地点 471.544km 471.69km
周期 94.013分钟 94.014分钟
每日圈数 15.317042 15.31694
Detailed Information
固有亮度:
5
最大亮度:
2.5
卫星平台:
Starlink V1.0
覆盖范围:
全球
运营商:
太空探索技术公司
运营商所在国:
美国
制造商(研发单位):
太空探索技术公司
制造商所在国:
美国
使用方式:
暂无
Satellite Introduction
星链(Starlink)计划是由太空探索技术公司(SpaceX)提出的一个巨型低轨卫星互联网星座项目,计划在2019年至2024年间在太空搭建由约1.2万颗卫星组成的“星链”网络,其中1584颗将部署在地球上空550千米处的近地轨道,并从2020年开始工作。该卫星仍在工作。
2D Orbit Map
3D Orbit Map
Orbit Altitude Analysis Chart
Orbit Inclination Analysis Chart
Orbit Comprehensive Analysis Chart
View Comprehensive Chart
Conjunction Data List
Event ID Objects TCA Miss Dist (km) Collision Risk Probability Collision Risk Index (CRI) Action
CDM_260907-155004-848106-875121
2026-09-07T
15:50:33+0000
2.940 km
极远距离
9.572235E-7 极低风险 0.35